Location: ?????????
(38.2881°N, 23.9373°E)
Time: 15:02:09
(UTC+00:00)

Daily predictions for brighter satellites

Satellite Brightness Start Highest point End
(mag) Time Altitude Azimuth Time Altitude Azimuth Time Altitude Azimuth
BREEZE M DEB (TANK) 3.4 17:53:07 10° WSW 17:56:06 66° NNW 18:04:53 10° NE
Cosmos 405 4.4 18:03:30 10° NNE 18:06:08 20° ENE 18:08:44 10° SE
Resurs 1-3 4.0 18:03:39 10° SE 18:07:49 45° ENE 18:12:00 10° N
Cosmos 1666 Rocket 3.9 18:03:41 10° N 18:07:58 49° E 18:12:16 10° SSE
Cosmos 1805 Rocket 4.2 18:04:18 10° NNW 18:08:41 60° W 18:13:02 10° S
CZ-4 R/B 3.5 18:07:47 10° SSW 18:11:13 27° W 18:14:43 10° NW
Cosmos 2219 3.9 18:06:35 10° N 18:11:49 38° ENE 18:17:01 10° SE
SJ 16-02 3.1 18:12:20 10° SE 18:14:25 13° E 18:16:32 10° ENE
CZ-4B R/B 2.4 18:12:30 10° NE 18:15:09 24° E 18:17:44 10° SSE
Cosmos 2208 Rocket 4.2 18:10:16 10° NNW 18:15:40 61° ENE 18:20:57 10° SSE
H-2A R/B 2.7 18:11:19 10° SSE 18:15:44 84° WSW 18:20:00 10° NNW
Cosmos 1633 Rocket 3.3 18:12:00 10° N 18:16:15 49° E 18:20:27 10° SSE
Cosmos 1340 3.8 18:14:44 10° SSE 18:17:47 24° E 18:20:51 10° NE
Cosmos 2233 Rocket 4.2 18:11:58 10° S 18:18:18 80° W 18:24:38 10° N
SJ-6B 2.9 18:15:35 10° S 18:19:24 76° W 18:23:10 10° NNW
Meteor 1-11 Rocket 4.4 18:14:14 10° N 18:19:53 41° ENE 18:25:26 10° SE
Okean O Rocket 4.3 18:17:24 10° SW 18:20:08 16° W 18:22:52 10° NW
Cosmos 1315 Rocket 2.8 18:16:50 10° N 18:20:53 66° E 18:24:50 10° SSE
Cosmos 2263 Rocket 4.2 18:18:59 10° NNE 18:21:20 13° NE 18:23:39 10° ENE
BREEZE-M DEB (TANK) 3.3 18:18:56 10° WNW 18:22:25 67° SW 18:27:21 11° SE
Cosmos 44 3.8 18:19:21 10° NW 18:23:31 49° WSW 18:27:42 10° S
Sich 1 4.0 18:19:27 10° NNW 18:23:40 50° W 18:27:49 10° SSW
Cosmos 2344 3.6 18:16:13 10° S 18:23:48 53° ESE 18:30:56 10° NE
Ariane Rocket 4.1 18:19:58 10° SE 18:24:16 29° ENE 18:28:36 10° N
USA 186 2.8 18:22:25 10° SSW 18:24:39 31° W 18:26:49 10° NNW
OBJECT-B 2.9 18:23:46 10° SSW 18:26:10 23° W 18:28:35 10° NW
Cosmos 1470 Rocket 4.2 18:23:30 10° N 18:27:31 37° ENE 18:31:13 12° SE
OAO 3 Rocket 3.4 18:23:13 10° W 18:28:03 59° S 18:32:44 11° ESE
Aureole 1 Rocket 2.4 18:28:29 10° S 18:31:50 52° ESE 18:34:48 10° NNE
Cosmos 1743 3.9 18:29:38 10° NNE 18:32:51 26° ENE 18:35:11 15° SE
CSL-04 Rocket 4.3 18:28:18 10° S 18:33:29 56° W 18:38:45 10° NNW
Resurs 01 Rocket 2.1 18:31:40 12° SE 18:35:29 44° ENE 18:39:40 10° N
Cosmos 1515 Rocket 3.7 18:33:41 10° SSE 18:37:53 51° E 18:42:09 10° NNE
Landsat 7 3.8 18:35:02 10° SSE 18:39:44 81° ENE 18:44:28 10° N
Cosmos 2227 Rocket 2.2 18:34:21 10° NNW 18:40:03 75° ENE 18:45:05 13° SSE
Cosmos 1980 Rocket 2.3 18:39:25 10° S 18:44:51 53° ESE 18:50:21 10° NNE
Cosmos 921 Rocket 4.3 18:42:35 10° N 18:46:24 26° ENE 18:48:50 17° ESE
Cosmos 1464 Rocket 4.1 18:40:50 10° S 18:46:53 58° E 18:52:55 10° NNE
IGS 5A 4.1 18:43:16 10° S 18:47:19 55° W 18:51:25 10° NNW
Okean-O 4.3 18:43:27 10° SSW 18:47:21 31° W 18:51:18 10° NW
PSLV R/B 3.9 18:44:37 10° N 18:48:40 83° WNW 18:52:42 10° SSW
ATLAS 2AS CENTAUR R/B 3.1 18:44:00 10° S 18:51:32 54° ESE 18:58:57 10° NE
IRS-1A Rocket 4.3 18:47:07 13° SSE 18:52:09 71° ENE 18:57:54 10° N
Cosmos 2228 Rocket 4.4 18:51:35 19° ESE 18:53:20 23° E 18:56:56 10° NE
Cosmos 2369 3.6 18:48:42 10° SSW 18:54:19 76° ESE 18:59:59 10° NNE
Cosmos 1354 Rocket 4.1 18:51:45 10° S 18:56:51 55° ESE 19:02:01 10° NNE
SPOT 3 Rocket 4.2 18:55:31 19° SE 18:58:37 38° ENE 19:03:20 10° N
ARGOS Delta rocket 4.1 18:53:55 10° N 18:59:26 87° E 19:04:47 10° S
MOS 1 4.3 18:57:32 12° SSE 19:02:43 85° WSW 19:08:25 10° NNW
Cosmos 1697 Rocket 3.6 18:58:15 10° SW 19:03:45 51° WNW 19:09:17 10° NNE
ISS -1.0 19:03:58 10° NNW 19:05:40 13° NNE 19:07:23 10° NE
Nadezhda 4 Rocket 4.3 18:59:42 10° N 19:05:43 50° E 19:09:33 22° SE
Okean 1 3.7 19:04:40 26° SSE 19:06:28 43° E 19:10:17 10° NNE
Cosmos 1536 2.8 19:03:50 10° N 19:07:52 89° W 19:10:28 21° S
RESURS DK-1 2.5 19:06:34 14° S 19:09:51 51° ESE 19:13:52 10° NE
H-2A R/B 3.7 19:07:48 10° N 19:11:30 33° WNW 19:15:12 10° SW
MetOp-B 4.1 19:11:14 23° SSE 19:14:39 70° ENE 19:19:59 10° N
SL-4 R/B 2.1 19:10:12 10° NW 19:14:45 82° NE 19:16:42 32° SE
Cosmos 836 Rocket 4.5 19:10:01 10° NNW 19:15:17 84° WSW 19:18:34 23° SSE
Cosmos 2297 Rocket 3.5 19:11:37 10° NW 19:16:40 34° WSW 19:21:41 10° SSW
ARIANE 5 R/B 4.5 19:16:07 15° E 19:17:18 17° ENE 19:20:07 10° NNE
ASTRO E2 4.1 19:15:20 10° WSW 19:18:22 22° SSW 19:18:32 21° S
ATLAS 3B R/B 4.4 19:14:40 10° NNW 19:20:34 25° NE 19:26:10 11° E
Meteor 2-9 Rocket 4.3 19:22:01 10° N 19:27:41 59° ENE 19:30:13 32° SE
Timation 2 Rocket 4.2 19:21:49 10° NNW 19:28:27 71° ENE 19:32:07 29° SE
Cosmos 1184 Rocket 4.3 19:26:47 12° SW 19:29:16 32° WNW 19:32:02 10° NNW
SL-16 R/B 2.9 19:31:42 31° ESE 19:32:37 33° ESE 19:37:38 10° NE
ERS-1 Rocket 3.5 19:32:33 32° ESE 19:34:12 42° ENE 19:38:56 10° N
Cosmos 1975 3.8 19:34:03 10° NNE 19:37:42 31° ENE 19:37:52 31° E
Cosmos 389 Rocket 3.7 19:37:53 10° NNW 19:41:09 36° W 19:42:29 26° SW
SPOT 1/Viking Rocket 4.4 19:39:39 18° SSW 19:43:09 45° W 19:48:07 10° NNW
Helios 1A Rocket 2.8 19:42:53 55° SE 19:43:38 73° ENE 19:47:37 10° N
Cosmos 1933 Rocket 4.4 19:39:22 10° NNW 19:43:40 48° W 19:46:00 24° SSW
EXPRESS MD2 2.8 19:41:03 10° NW 19:45:59 87° NE 19:46:11 78° ESE
GENESIS II 4.0 19:46:07 69° SE 19:46:14 69° ESE 19:50:06 10° NE
CZ-4B R/B 4.4 19:44:53 10° NW 19:46:29 13° WNW 19:48:04 10° W
Meteor 1-18 Rocket 4.1 19:44:23 31° S 19:47:13 75° E 19:52:52 10° NNE
Meteor 2-21 4.4 19:41:13 10° N 19:47:22 88° E 19:50:18 33° S
CZ-2C R/B 3.8 19:43:32 10° NNE 19:48:17 66° ESE 19:49:32 46° SSE
Cosmos 2034 Rocket 4.4 19:43:58 12° SSW 19:49:51 64° W 19:56:10 10° N
Cosmos 1733 Rocket 4.2 19:46:44 10° NNE 19:50:35 28° ENE 19:50:39 28° ENE
SJ 16-02 2.3 19:48:22 10° SW 19:52:30 46° WNW 19:56:43 10° N
Cosmos 2278 4.0 19:47:27 10° SSW 19:53:03 67° WNW 19:58:44 10° NNE
Cosmos 2292 Rocket 3.8 19:53:07 10° N 19:55:06 36° NNE 19:55:06 36° NNE
Cosmos 2360 Rocket 3.6 19:59:00 22° E 19:59:00 22° E 20:02:17 10° NE
Meteor 2-15 4.5 19:57:00 42° SE 19:58:46 58° E 20:04:42 10° NNE
NOSS 2-1 (C) 3.4 19:59:40 51° NNE 19:59:40 51° NNE 20:02:08 10° NNE
Cosmos 1862 Rocket 4.3 20:00:24 39° ENE 20:00:24 39° ENE 20:04:13 10° NNE
Meteor 2-21 Rocket 4.3 19:55:03 10° N 20:01:10 84° E 20:03:25 42° SSE
Cosmos 2082 4.3 19:57:25 10° NW 20:02:47 48° WSW 20:04:59 32° SSW
Ariane Rocket 4.5 20:00:04 17° SSW 20:03:07 30° W 20:07:35 10° NW
Cosmos 2263 Rocket 2.1 20:00:30 10° NNW 20:06:06 85° ENE 20:07:29 53° SSE
SPOT 5 3.1 20:06:30 48° S 20:08:02 78° WSW 20:13:14 10° NNW
NOSS 2-1 (D) 3.6 20:09:53 49° NNW 20:09:53 49° NNW 20:12:32 10° NNE
Terra 1.7 20:09:04 64° SE 20:09:41 74° ENE 20:14:27 10° N
Cosmos 2279 Rocket 4.1 20:08:57 46° SE 20:10:16 55° E 20:16:18 10° NNE
OAO 3 Rocket 4.1 20:06:44 10° W 20:10:29 34° SW 20:10:29 34° SW
Resurs 01 Rocket 4.1 20:09:38 10° SW 20:12:10 15° W 20:14:42 10° WNW
Meteor 2-16 Rocket 4.4 20:07:00 10° N 20:13:12 88° E 20:15:04 48° S
Cosmos 1346 Rocket 2.8 20:15:00 80° NNW 20:15:00 80° NNW 20:18:50 10° N
USA 215 3.5 20:10:28 10° ENE 20:16:25 43° ESE 20:16:25 43° ESE
Cosmos 990 Rocket 4.3 20:17:55 49° E 20:17:55 49° E 20:22:40 10° NNE
Cosmos 1066 Rocket 4.4 20:23:13 51° ESE 20:23:34 52° E 20:29:04 10° NNE
Cosmos 1898 Rocket 4.2 20:31:36 40° ENE 20:31:36 40° ENE 20:35:46 10° NNE
SL-24 R/B - RUBIN 2 3.7 20:30:30 10° NNW 20:34:40 74° NNE 20:34:40 74° NNE
Spot 2 Rocket 4.4 20:35:42 34° SW 20:36:45 38° W 20:41:26 10° NNW
Cosmos 2322 Rocket 2.0 20:36:17 68° S 20:37:02 86° ESE 20:42:40 10° NNE
Cosmos 2180 Rocket 4.3 20:36:36 62° SE 20:37:22 68° E 20:43:28 10° NNE
Okean 1-7 4.5 20:40:37 29° NE 20:40:37 29° NE 20:43:14 10° NNE
Cosmos 2333 Rocket 3.5 20:43:20 27° ENE 20:43:20 27° ENE 20:46:43 10° NE
ATLAS 2AS CENTAUR R/B 4.3 20:35:41 10° WSW 20:42:47 37° NW 20:49:43 10° NNE
ISS -1.6 20:39:42 10° NW 20:41:27 27° NNW 20:41:27 27° NNW
Cosmos 1844 Rocket 3.5 20:40:34 10° N 20:45:42 36° ENE 20:46:18 35° ENE
ARIANE 5 R/B 3.5 20:53:39 43° W 20:53:39 43° W 20:57:39 10° NNW
ATLAS CENTAUR R/B 3.5 20:57:31 10° N 21:01:17 22° NE 21:01:50 21° ENE
Cosmos 2219 Rocket 3.4 21:03:07 28° ENE 21:03:07 28° ENE 21:06:24 10° NE
Cosmos 44 Rocket 4.0 20:57:48 10° NW 21:01:28 43° W 21:01:28 43° W
Cosmos 1844 4.2 21:03:40 10° NNW 21:09:18 48° ENE 21:09:35 48° ENE
Cosmos 1703 Rocket 4.5 21:11:08 45° NNE 21:11:08 45° NNE 21:14:15 10° N
ATLAS 3B R/B 2.8 21:04:38 10° NW 21:12:07 83° WSW 21:13:24 65° SSE
SL-16 R/B 3.7 21:13:28 19° WSW 21:16:39 33° WNW 21:21:44 10° N
Cosmos 1655 Rocket 3.8 21:12:46 10° N 21:19:02 81° E 21:19:13 79° ESE
CZ-4C R/B 4.3 21:17:37 10° NNW 21:24:03 32° NE 21:29:10 17° E
Meteor 2-10 4.3 21:23:17 10° NNW 21:27:49 61° NW 21:27:49 61° NW
Cosmos 2237 Rocket 4.5 21:33:08 12° ENE 21:33:08 12° ENE 21:34:04 10° ENE
COSMOS 2428 3.6 21:35:55 37° ENE 21:35:55 37° ENE 21:39:52 10° NE
Meteor 1-15 Rocket 4.3 21:32:39 10° N 21:37:56 75° NW 21:37:56 75° NW
Cosmos 2360 Rocket 3.0 21:40:42 41° W 21:41:34 44° WNW 21:46:57 10° N
Cosmos 1937 Rocket 4.0 21:42:39 55° NW 21:42:39 55° NW 21:47:29 10° N
ALOS 2 3.8 21:44:37 39° NNE 21:44:37 39° NNE 21:47:31 10° N
Cosmos 2333 4.4 21:47:08 67° NW 21:47:08 67° NW 21:52:27 10° NNE
Cosmos 2266 Rocket 4.3 21:45:16 10° NNW 21:51:18 54° W 21:51:20 54° W
Cosmos 1867 4.2 21:53:07 48° NE 21:53:07 48° NE 21:57:07 10° NE
USA 215 3.8 21:53:21 10° NE 21:59:41 53° NW 22:03:43 23° WSW
Meteor 2-17 Rocket 4.4 21:55:49 10° N 22:01:45 82° NNE 22:01:45 82° NNE
ATLAS 5 CENTAUR R/B 4.4 21:50:46 10° NW 22:02:37 34° NNE 22:05:22 21° ENE
ADEOS Rocket 3.0 22:05:31 66° NE 22:05:31 66° NE 22:11:02 10° N
Cosmos 2278 Rocket 3.9 22:01:01 10° N 22:05:30 23° NE 22:07:02 21° E
Cosmos 1818 4.2 22:08:07 10° NW 22:12:08 48° NW 22:12:08 48° NW
Lacrosse 5 4.2 22:27:49 14° ENE 22:27:49 14° ENE 22:28:53 10° ENE
Cosmos 2322 4.3 22:25:29 49° WNW 22:25:31 49° WNW 22:31:05 10° NNE
Cosmos 2333 Rocket 3.3 22:25:18 33° WNW 22:25:57 35° WNW 22:31:07 10° N
Cosmos 1844 Rocket 4.2 22:24:42 10° NW 22:27:57 25° WNW 22:27:57 25° WNW
USA 267 3.6 22:29:45 36° E 22:32:21 60° NE 22:38:46 10° NW
S3M 4.0 22:39:28 71° E 22:39:28 71° E 22:45:45 10° NNE
ASTEX 1 4.1 22:34:49 10° N 22:38:32 52° N 22:38:32 52° N
USA 229 DEB 4.5 22:32:31 10° NNW 22:39:49 55° NE 22:43:19 33° ESE
USA 229 4.5 22:32:38 10° NNW 22:39:55 54° NE 22:43:27 32° ESE
ATLAS CENTAUR R/B 3.5 22:35:44 10° NW 22:37:50 24° NW 22:37:50 24° NW
Cosmos 1553 Rocket 4.0 22:43:37 66° WNW 22:43:37 66° WNW 22:49:34 10° N
Cosmos 2219 Rocket 3.4 22:44:47 31° WNW 22:45:20 31° WNW 22:50:18 10° N
Cosmos 2150 Rocket 4.4 22:52:05 59° NNE 22:52:05 59° NNE 22:56:15 10° NNE
Meteor 1-16 Rocket 4.3 22:51:51 10° N 22:57:27 79° N 22:57:27 79° N
Cosmos 494 Rocket 4.5 22:52:48 10° NNW 22:56:50 56° NNW 22:56:50 56° NNW
CZ-2D R/B 3.9 22:55:42 10° NE 22:59:34 20° E 22:59:34 20° E
NOSS 0 Rocket 4.0 23:01:02 70° WNW 23:01:08 71° WNW 23:07:23 10° NNE
Cosmos 1125 Rocket 3.9 23:03:17 57° NNW 23:03:17 57° NNW 23:07:40 10° NNE
NOSS 3-1 (A) 4.1 22:58:48 10° NW 23:06:39 87° WSW 23:08:57 55° SSE
CZ-4C R/B 3.0 23:05:35 10° NW 23:13:12 70° WSW 23:14:17 63° SSW
NOSS 3-1 (C) 4.4 23:06:13 10° NW 23:13:50 51° WSW 23:14:02 50° WSW
Cosmos 2237 Rocket 2.3 23:14:56 71° NW 23:14:56 71° NW 23:20:22 10° NNE
Cosmos 1975 Rocket 4.2 23:19:32 41° NE 23:19:32 41° NE 23:22:47 10° NNE
COSMOS 2428 4.2 23:17:53 24° WNW 23:18:54 25° WNW 23:23:32 10° N
Cosmos 1025 Rocket 4.3 23:23:16 36° ENE 23:23:16 36° ENE 23:26:20 10° NNE
NOSS 2-2 (D) 4.5 23:18:50 10° NNW 23:24:25 87° ENE 23:25:35 64° SE
Meteor 2-12 Rocket 4.3 23:18:44 10° N 23:24:49 82° W 23:24:50 82° WSW
Cosmos 1745 Rocket 4.2 23:19:09 10° NNW 23:25:01 56° W 23:25:01 56° W
Resurs 1-4 Rocket 3.1 23:21:02 10° NNE 23:25:53 36° E 23:25:56 36° E
Cosmos 332 Rocket 4.2 23:29:39 59° N 23:29:39 59° N 23:33:36 10° NNE
Cosmos 1943 Rocket 3.7 23:29:07 10° N 23:34:12 33° ENE 23:37:57 16° ESE
Lacrosse 5 rocket 3.0 23:39:06 27° ENE 23:39:06 27° ENE 23:41:07 10° NE
IDEFIX/ARIANE 42P 4.4 23:35:10 10° NE 23:39:00 20° E 23:40:17 19° ESE
ADEOS II 3.6 23:35:31 10° NE 23:39:48 25° E 23:40:44 24° ESE
GP-B 3.8 23:38:41 10° N 23:42:03 50° NNW 23:42:03 50° NNW
Thor Agena Rocket 3.5 23:38:31 10° N 23:43:43 77° WNW 23:43:43 77° WNW
Cosmos 2278 Rocket 2.7 23:44:23 10° NNW 23:48:51 44° WNW 23:48:51 44° WNW
EO 1 Delta rocket 4.3 23:46:56 10° N 23:51:24 55° WNW 23:51:24 55° WNW
Cosmos 1544 Rocket 4.4 23:48:07 10° N 23:52:19 43° E 23:52:26 43° E
